UAL2179 KSFO-KLAX

Flight info

Callsign UAL2179
Flight time 0h 59m
Altitude 33000
Route WESLA5 SUSEY DCT EBAYE DCT BURGL BAYST1
Aircraft A320/M-SDFGHIRWY/LB1

Departure

Time 2026-04-21 03:11
Airport San Francisco International Airport (KSFO)

Arrival

Time 2026-04-21 04:10
Airport Los Angeles International Airport (KLAX)
Time Latitude Longitude Altitude Speed Heading
2026-04-21 02:31 37.61455 -122.38197 32 ft 0 kts 311°
2026-04-21 03:00 37.61447 -122.38184 22 ft 4 kts 311°
2026-04-21 03:00 37.61430 -122.38158 22 ft 4 kts 294°
2026-04-21 03:00 37.61426 -122.38129 23 ft 4 kts 240°
2026-04-21 03:00 37.61433 -122.38119 24 ft 0 kts 207°
2026-04-21 03:04 37.61429 -122.38118 24 ft 2 kts 185°
2026-04-21 03:04 37.61402 -122.38088 22 ft 9 kts 127°
2026-04-21 03:04 37.61371 -122.38006 23 ft 13 kts 115°
2026-04-21 03:04 37.61324 -122.37898 23 ft 14 kts 118°
2026-04-21 03:05 37.61281 -122.37794 22 ft 13 kts 116°
2026-04-21 03:05 37.61242 -122.37698 22 ft 12 kts 118°
2026-04-21 03:05 37.61227 -122.37602 22 ft 11 kts 87°
2026-04-21 03:05 37.61261 -122.37509 22 ft 14 kts 51°
2026-04-21 03:06 37.61351 -122.37436 22 ft 17 kts 27°
2026-04-21 03:06 37.61453 -122.37369 22 ft 16 kts 27°
2026-04-21 03:06 37.61541 -122.37278 24 ft 18 kts 59°
2026-04-21 03:06 37.61553 -122.37118 22 ft 19 kts 108°
2026-04-21 03:07 37.61493 -122.36973 22 ft 19 kts 118°
2026-04-21 03:07 37.61409 -122.36845 22 ft 19 kts 132°
2026-04-21 03:07 37.61339 -122.36714 23 ft 17 kts 122°
2026-04-21 03:07 37.61282 -122.36582 22 ft 17 kts 119°
2026-04-21 03:08 37.61225 -122.36446 23 ft 18 kts 118°
2026-04-21 03:08 37.61166 -122.36308 23 ft 18 kts 118°
2026-04-21 03:08 37.61103 -122.36160 24 ft 19 kts 118°
2026-04-21 03:08 37.61051 -122.36018 22 ft 17 kts 99°
2026-04-21 03:09 37.61106 -122.35898 22 ft 17 kts 24°
2026-04-21 03:09 37.61182 -122.35862 22 ft 6 kts 330°
2026-04-21 03:09 37.61190 -122.35881 22 ft 0 kts 296°
2026-04-21 03:10 37.61194 -122.35890 22 ft 4 kts 296°
2026-04-21 03:10 37.61283 -122.36106 22 ft 61 kts 297°
2026-04-21 03:10 37.61579 -122.36809 22 ft 118 kts 297°
2026-04-21 03:10 37.62034 -122.37905 37 ft 161 kts 296°
2026-04-21 03:11 37.62557 -122.39139 632 ft 160 kts 296°
2026-04-21 03:11 37.63098 -122.40369 1219 ft 161 kts 293°
2026-04-21 03:11 37.63656 -122.41599 1793 ft 165 kts 295°
2026-04-21 03:11 37.64248 -122.42949 2015 ft 191 kts 293°
2026-04-21 03:12 37.64898 -122.44525 2288 ft 216 kts 292°
2026-04-21 03:12 37.65627 -122.46346 2624 ft 239 kts 293°
2026-04-21 03:12 37.66432 -122.48213 2956 ft 241 kts 292°
2026-04-21 03:12 37.66829 -122.50263 3009 ft 245 kts 261°
2026-04-21 03:13 37.66164 -122.52188 3017 ft 243 kts 224°
2026-04-21 03:13 37.64640 -122.53082 3591 ft 250 kts 184°
2026-04-21 03:13 37.62912 -122.52795 4656 ft 252 kts 167°
2026-04-21 03:13 37.61243 -122.52123 5676 ft 252 kts 163°
2026-04-21 03:14 37.59592 -122.51373 6596 ft 253 kts 164°
2026-04-21 03:14 37.57927 -122.50646 7482 ft 253 kts 165°
2026-04-21 03:14 37.56254 -122.49973 8427 ft 253 kts 167°
2026-04-21 03:14 37.54563 -122.49345 9347 ft 254 kts 169°
2026-04-21 03:15 37.52885 -122.48761 10221 ft 254 kts 169°
2026-04-21 03:15 37.51093 -122.48166 10596 ft 274 kts 169°
2026-04-21 03:15 37.49255 -122.47262 10750 ft 303 kts 156°
2026-04-21 03:15 37.47517 -122.45536 10880 ft 335 kts 140°
2026-04-21 03:16 37.45906 -122.43324 11284 ft 347 kts 139°
2026-04-21 03:16 37.44274 -122.41080 11956 ft 349 kts 139°
2026-04-21 03:16 37.42634 -122.38830 12780 ft 348 kts 140°
2026-04-21 03:16 37.40989 -122.36585 13487 ft 350 kts 140°
2026-04-21 03:17 37.39330 -122.34329 14187 ft 352 kts 140°
2026-04-21 03:17 37.37660 -122.32063 14793 ft 355 kts 140°
2026-04-21 03:17 37.35975 -122.29776 15379 ft 358 kts 140°
2026-04-21 03:17 37.34273 -122.27463 15950 ft 362 kts 140°
2026-04-21 03:18 37.32553 -122.25132 16504 ft 366 kts 140°
2026-04-21 03:18 37.30814 -122.22777 17058 ft 369 kts 140°
2026-04-21 03:18 37.29062 -122.20406 17646 ft 373 kts 140°
2026-04-21 03:18 37.27284 -122.18005 18206 ft 377 kts 140°
2026-04-21 03:19 37.25485 -122.15577 18698 ft 381 kts 140°
2026-04-21 03:19 37.23670 -122.13126 19174 ft 385 kts 140°
2026-04-21 03:19 37.21836 -122.10652 19653 ft 389 kts 140°
2026-04-21 03:19 37.19984 -122.08156 20133 ft 393 kts 141°
2026-04-21 03:20 37.18108 -122.05632 20544 ft 397 kts 140°
2026-04-21 03:20 37.16213 -122.03084 20908 ft 401 kts 140°
2026-04-21 03:20 37.14305 -122.00514 21296 ft 405 kts 141°
2026-04-21 03:20 37.13032 -121.98803 21525 ft 407 kts 141°
2026-04-21 03:21 37.11092 -121.96196 21877 ft 410 kts 141°
2026-04-21 03:21 37.09136 -121.93568 22264 ft 413 kts 141°
2026-04-21 03:21 37.07168 -121.90928 22630 ft 417 kts 141°
2026-04-21 03:21 37.05187 -121.88274 22992 ft 419 kts 141°
2026-04-21 03:22 37.03189 -121.85602 23317 ft 422 kts 141°
2026-04-21 03:22 37.01172 -121.82905 23619 ft 425 kts 141°
2026-04-21 03:22 36.99144 -121.80193 23902 ft 428 kts 141°
2026-04-21 03:22 36.97099 -121.77463 24121 ft 432 kts 141°
2026-04-21 03:23 36.95045 -121.74719 24409 ft 434 kts 141°
2026-04-21 03:23 36.92975 -121.71957 24719 ft 436 kts 141°
2026-04-21 03:23 36.90895 -121.69185 25001 ft 438 kts 141°
2026-04-21 03:23 36.88801 -121.66398 25269 ft 440 kts 141°
2026-04-21 03:24 36.86713 -121.63613 25663 ft 440 kts 141°
2026-04-21 03:24 36.84625 -121.60827 26083 ft 438 kts 141°
2026-04-21 03:24 36.82536 -121.58047 26463 ft 439 kts 141°
2026-04-21 03:24 36.80445 -121.55273 26860 ft 439 kts 141°
2026-04-21 03:25 36.78351 -121.52499 27265 ft 438 kts 141°
2026-04-21 03:25 36.76265 -121.49739 27698 ft 437 kts 141°
2026-04-21 03:25 36.74181 -121.46984 28166 ft 436 kts 141°
2026-04-21 03:25 36.72100 -121.44234 28627 ft 435 kts 141°
2026-04-21 03:26 36.70022 -121.41491 29077 ft 435 kts 142°
2026-04-21 03:26 36.67946 -121.38758 29491 ft 435 kts 142°
2026-04-21 03:26 36.65864 -121.36018 29917 ft 435 kts 142°
2026-04-21 03:26 36.63790 -121.33283 30351 ft 434 kts 142°
2026-04-21 03:27 36.61716 -121.30551 30760 ft 433 kts 142°
2026-04-21 03:27 36.59645 -121.27828 31181 ft 433 kts 142°
2026-04-21 03:27 36.57579 -121.25111 31576 ft 432 kts 142°
2026-04-21 03:27 36.55521 -121.22404 31995 ft 431 kts 142°
2026-04-21 03:28 36.53459 -121.19697 32338 ft 431 kts 142°
2026-04-21 03:28 36.51390 -121.16985 32678 ft 432 kts 142°
2026-04-21 03:28 36.49318 -121.14270 32921 ft 433 kts 142°
2026-04-21 03:28 36.47231 -121.11542 32978 ft 439 kts 142°
2026-04-21 03:29 36.42959 -121.05969 32966 ft 449 kts 141°
2026-04-21 03:29 36.38778 -121.00140 32981 ft 454 kts 138°
2026-04-21 03:30 36.34710 -120.94147 32983 ft 455 kts 138°
2026-04-21 03:30 36.30619 -120.88162 32979 ft 455 kts 139°
2026-04-21 03:31 36.26485 -120.82235 32995 ft 454 kts 139°
2026-04-21 03:31 36.22337 -120.76325 32977 ft 455 kts 139°
2026-04-21 03:32 36.18188 -120.70419 32988 ft 455 kts 139°
2026-04-21 03:32 36.14031 -120.64491 32993 ft 456 kts 139°
2026-04-21 03:33 36.09872 -120.58576 33000 ft 456 kts 139°
2026-04-21 03:33 36.05703 -120.52660 33014 ft 458 kts 139°
2026-04-21 03:34 36.01508 -120.46720 33010 ft 459 kts 139°
2026-04-21 03:34 35.97310 -120.40773 33023 ft 459 kts 138°
2026-04-21 03:35 35.93111 -120.34839 32994 ft 459 kts 138°
2026-04-21 03:35 35.88899 -120.28918 32997 ft 459 kts 139°
2026-04-21 03:36 35.84116 -120.23956 32995 ft 443 kts 155°
2026-04-21 03:36 35.78860 -120.20007 32999 ft 443 kts 155°
2026-04-21 03:37 35.73636 -120.16083 32973 ft 443 kts 155°
2026-04-21 03:37 35.68369 -120.12116 32986 ft 444 kts 155°
2026-04-21 03:38 35.63098 -120.08145 32980 ft 445 kts 154°
2026-04-21 03:38 35.57811 -120.04159 32950 ft 447 kts 154°
2026-04-21 03:39 35.52510 -120.00149 32967 ft 448 kts 154°
2026-04-21 03:39 35.47200 -119.96145 32981 ft 448 kts 154°
2026-04-21 03:40 35.41873 -119.92146 32975 ft 449 kts 154°
2026-04-21 03:40 35.36542 -119.88156 32977 ft 449 kts 154°
2026-04-21 03:41 35.31206 -119.84161 32981 ft 450 kts 154°
2026-04-21 03:41 35.26041 -119.79756 32945 ft 455 kts 148°
2026-04-21 03:42 35.21012 -119.75053 32952 ft 455 kts 148°
2026-04-21 03:42 35.15975 -119.70362 32932 ft 456 kts 148°
2026-04-21 03:43 35.10928 -119.65656 32946 ft 457 kts 148°
2026-04-21 03:43 35.05876 -119.60947 32970 ft 457 kts 148°
2026-04-21 03:44 35.00851 -119.56283 32688 ft 458 kts 148°
2026-04-21 03:44 34.98305 -119.53927 31686 ft 462 kts 148°
2026-04-21 03:44 34.95742 -119.51556 30784 ft 463 kts 148°
2026-04-21 03:45 34.93161 -119.49167 29656 ft 468 kts 148°
2026-04-21 03:45 34.90567 -119.46766 28539 ft 469 kts 148°
2026-04-21 03:45 34.87958 -119.44387 27497 ft 468 kts 148°
2026-04-21 03:45 34.85335 -119.42033 26457 ft 468 kts 148°
2026-04-21 03:46 34.82728 -119.39715 25998 ft 456 kts 148°
2026-04-21 03:46 34.80227 -119.37486 25875 ft 437 kts 148°
2026-04-21 03:46 34.77821 -119.35338 25745 ft 421 kts 149°
2026-04-21 03:46 34.75494 -119.33262 25521 ft 409 kts 149°
2026-04-21 03:47 34.73224 -119.31248 25276 ft 402 kts 149°
2026-04-21 03:47 34.70965 -119.29271 25064 ft 399 kts 149°
2026-04-21 03:47 34.68715 -119.27314 24703 ft 396 kts 149°
2026-04-21 03:47 34.66481 -119.25375 24285 ft 393 kts 149°
2026-04-21 03:48 34.64269 -119.23456 23871 ft 389 kts 150°
2026-04-21 03:48 34.62065 -119.21553 23373 ft 388 kts 150°
2026-04-21 03:48 34.59877 -119.19670 22879 ft 385 kts 150°
2026-04-21 03:48 34.57700 -119.17800 22498 ft 381 kts 150°
2026-04-21 03:49 34.55551 -119.15949 22102 ft 377 kts 150°
2026-04-21 03:49 34.53433 -119.14097 21656 ft 375 kts 149°
2026-04-21 03:49 34.51334 -119.12236 21194 ft 372 kts 149°
2026-04-21 03:49 34.49255 -119.10385 20733 ft 370 kts 149°
2026-04-21 03:50 34.47181 -119.08545 20264 ft 368 kts 149°
2026-04-21 03:50 34.45128 -119.06725 19848 ft 365 kts 149°
2026-04-21 03:50 34.43083 -119.04921 19400 ft 362 kts 149°
2026-04-21 03:50 34.41048 -119.03142 18982 ft 359 kts 149°
2026-04-21 03:51 34.39025 -119.01386 18559 ft 356 kts 150°
2026-04-21 03:51 34.37020 -118.99660 18087 ft 353 kts 150°
2026-04-21 03:51 34.35026 -118.97947 17569 ft 350 kts 150°
2026-04-21 03:51 34.33039 -118.96231 16687 ft 357 kts 150°
2026-04-21 03:52 34.31031 -118.94467 16078 ft 358 kts 148°
2026-04-21 03:52 34.29058 -118.92670 15928 ft 345 kts 148°
2026-04-21 03:52 34.27173 -118.90924 15566 ft 339 kts 147°
2026-04-21 03:52 34.25324 -118.89200 14986 ft 333 kts 147°
2026-04-21 03:53 34.23494 -118.87496 14292 ft 330 kts 147°
2026-04-21 03:53 34.21714 -118.85848 13909 ft 318 kts 147°
2026-04-21 03:53 34.20015 -118.84276 13709 ft 300 kts 148°
2026-04-21 03:53 34.18377 -118.82771 13245 ft 293 kts 148°
2026-04-21 03:54 34.16763 -118.81297 12670 ft 289 kts 147°
2026-04-21 03:54 34.15205 -118.79765 12126 ft 288 kts 144°
2026-04-21 03:54 34.13712 -118.78166 11583 ft 286 kts 142°
2026-04-21 03:54 34.12249 -118.76545 11057 ft 284 kts 142°
2026-04-21 03:55 34.10802 -118.74935 10525 ft 282 kts 142°
2026-04-21 03:55 34.09361 -118.73340 10014 ft 280 kts 142°
2026-04-21 03:55 34.07931 -118.71767 9438 ft 277 kts 141°
2026-04-21 03:55 34.06507 -118.70207 8988 ft 274 kts 141°
2026-04-21 03:56 34.05121 -118.68698 9005 ft 267 kts 142°
2026-04-21 03:56 34.03846 -118.67063 9033 ft 271 kts 129°
2026-04-21 03:56 34.02985 -118.65032 8993 ft 276 kts 112°
2026-04-21 03:56 34.02614 -118.62752 8861 ft 279 kts 100°
2026-04-21 03:57 34.02398 -118.60429 8735 ft 279 kts 101°
2026-04-21 03:57 34.02182 -118.58109 8610 ft 278 kts 100°
2026-04-21 03:57 34.01964 -118.55798 8364 ft 277 kts 100°
2026-04-21 03:57 34.01748 -118.53495 8057 ft 275 kts 100°
2026-04-21 03:58 34.01534 -118.51223 7748 ft 269 kts 100°
2026-04-21 03:58 34.01321 -118.48976 7159 ft 270 kts 100°
2026-04-21 03:58 34.01110 -118.46731 6626 ft 269 kts 98°
2026-04-21 03:58 34.01208 -118.44484 6087 ft 270 kts 80°
2026-04-21 03:59 34.01599 -118.42279 5551 ft 267 kts 80°
2026-04-21 03:59 34.01980 -118.40099 5047 ft 264 kts 79°
2026-04-21 03:59 34.02354 -118.37948 4535 ft 261 kts 79°
2026-04-21 04:00 34.03004 -118.33710 3516 ft 253 kts 83°
2026-04-21 04:00 34.03224 -118.31644 3017 ft 248 kts 84°
2026-04-21 04:00 34.03425 -118.29625 2700 ft 238 kts 83°
2026-04-21 04:00 34.03625 -118.27650 2592 ft 231 kts 83°
2026-04-21 04:01 34.03824 -118.25741 2610 ft 228 kts 83°
2026-04-21 04:01 34.04026 -118.23836 2633 ft 228 kts 83°
2026-04-21 04:01 34.04229 -118.21948 2631 ft 227 kts 83°
2026-04-21 04:01 34.04433 -118.20066 2629 ft 226 kts 83°
2026-04-21 04:02 34.04638 -118.18196 2626 ft 224 kts 83°
2026-04-21 04:02 34.04840 -118.16363 2625 ft 223 kts 83°
2026-04-21 04:02 34.05044 -118.14515 2623 ft 222 kts 83°
2026-04-21 04:02 34.05248 -118.12664 2624 ft 223 kts 83°
2026-04-21 04:03 34.05171 -118.10819 2601 ft 221 kts 111°
2026-04-21 04:03 34.04286 -118.09344 2606 ft 219 kts 145°
2026-04-21 04:03 34.02872 -118.08646 2615 ft 218 kts 167°
2026-04-21 04:03 34.01402 -118.08295 2609 ft 219 kts 171°
2026-04-21 04:04 33.99908 -118.08368 2601 ft 217 kts 200°
2026-04-21 04:04 33.98692 -118.09395 2604 ft 212 kts 233°
2026-04-21 04:04 33.98154 -118.10948 2603 ft 196 kts 262°
2026-04-21 04:04 33.97996 -118.12545 2605 ft 189 kts 263°
2026-04-21 04:05 33.97843 -118.14107 2650 ft 187 kts 263°
2026-04-21 04:05 33.97689 -118.15654 2630 ft 186 kts 263°
2026-04-21 04:05 33.97534 -118.17201 2625 ft 186 kts 262°
2026-04-21 04:05 33.97379 -118.18749 2630 ft 186 kts 263°
2026-04-21 04:06 33.97227 -118.20262 2619 ft 174 kts 263°
2026-04-21 04:06 33.97091 -118.21623 2617 ft 156 kts 263°
2026-04-21 04:06 33.96964 -118.22880 2632 ft 149 kts 262°
2026-04-21 04:06 33.96840 -118.24109 2629 ft 148 kts 263°
2026-04-21 04:07 33.96711 -118.25396 2523 ft 159 kts 263°
2026-04-21 04:07 33.96577 -118.26722 2342 ft 159 kts 263°
2026-04-21 04:07 33.96445 -118.28030 2138 ft 157 kts 262°
2026-04-21 04:07 33.96358 -118.28886 2005 ft 154 kts 262°
2026-04-21 04:08 33.96229 -118.30169 1801 ft 154 kts 262°
2026-04-21 04:08 33.96100 -118.31444 1593 ft 152 kts 262°
2026-04-21 04:08 33.95972 -118.32702 1383 ft 153 kts 262°
2026-04-21 04:08 33.95844 -118.33966 1176 ft 152 kts 262°
2026-04-21 04:09 33.95718 -118.35203 983 ft 145 kts 262°
2026-04-21 04:09 33.95601 -118.36381 787 ft 139 kts 263°
2026-04-21 04:09 33.95486 -118.37518 613 ft 136 kts 263°
2026-04-21 04:09 33.95373 -118.38638 399 ft 134 kts 262°
2026-04-21 04:10 33.95257 -118.39747 218 ft 133 kts 262°
2026-04-21 04:10 33.95145 -118.40851 95 ft 128 kts 263°
2026-04-21 04:10 33.95053 -118.41735 94 ft 82 kts 263°
2026-04-21 04:10 33.95001 -118.42212 94 ft 39 kts 258°
2026-04-21 04:11 33.94868 -118.42467 96 ft 21 kts 218°
2026-04-21 04:11 33.94852 -118.42473 96 ft 0 kts 188°
2026-04-21 04:11 33.94832 -118.42479 98 ft 9 kts 194°
2026-04-21 04:11 33.94744 -118.42489 99 ft 14 kts 176°
2026-04-21 04:12 33.94663 -118.42460 96 ft 9 kts 114°
2026-04-21 04:12 33.94665 -118.42416 96 ft 0 kts 84°
2026-04-21 04:12 33.94665 -118.42407 96 ft 3 kts 84°
2026-04-21 04:13 33.94668 -118.42372 95 ft 6 kts 85°
2026-04-21 04:13 33.94674 -118.42311 94 ft 9 kts 83°
2026-04-21 04:13 33.94683 -118.42228 94 ft 11 kts 82°
2026-04-21 04:13 33.94694 -118.42125 95 ft 14 kts 83°
2026-04-21 04:14 33.94706 -118.42002 93 ft 16 kts 83°
2026-04-21 04:14 33.94650 -118.41912 94 ft 16 kts 136°
2026-04-21 04:14 33.94584 -118.41812 93 ft 17 kts 166°
2026-04-21 04:14 33.94459 -118.41792 95 ft 20 kts 173°
2026-04-21 04:15 33.94315 -118.41771 93 ft 22 kts 172°
2026-04-21 04:15 33.94152 -118.41746 93 ft 25 kts 173°
2026-04-21 04:15 33.93972 -118.41720 95 ft 27 kts 173°
2026-04-21 04:15 33.93792 -118.41694 95 ft 17 kts 173°
2026-04-21 04:16 33.93713 -118.41638 97 ft 14 kts 98°
2026-04-21 04:16 33.93724 -118.41512 97 ft 17 kts 83°
2026-04-21 04:16 33.93739 -118.41363 96 ft 19 kts 84°
2026-04-21 04:16 33.93757 -118.41195 94 ft 22 kts 82°
2026-04-21 04:17 33.93779 -118.41004 93 ft 24 kts 83°
2026-04-21 04:17 33.93798 -118.40793 96 ft 26 kts 84°
2026-04-21 04:17 33.93818 -118.40573 94 ft 27 kts 83°
2026-04-21 04:17 33.93841 -118.40349 97 ft 27 kts 86°
2026-04-21 04:18 33.93860 -118.40202 96 ft 12 kts 82°
2026-04-21 04:18 33.93869 -118.40099 97 ft 12 kts 85°
2026-04-21 04:18 33.93924 -118.40049 96 ft 13 kts 357°
2026-04-21 04:18 33.94008 -118.40017 94 ft 14 kts 41°
2026-04-21 04:19 33.94032 -118.39986 94 ft 0 kts 49°
2026-04-21 04:19 33.94034 -118.39984 93 ft 0 kts 49°